TimeCST,TemperatureF,Dew PointF,Humidity,Sea Level PressureIn,VisibilityMPH,Wind Direction,Wind SpeedMPH,Gust SpeedMPH,PrecipitationIn,Events,Conditions,WindDirDegrees,DateUTC
12:15 AM,34.3,31.5,89,29.99,10.0,WNW,5.8,-,N/A,,Clear,290,2013-11-09 06:15:00
12:35 AM,34.7,31.5,88,29.99,10.0,WNW,6.9,-,N/A,,Clear,300,2013-11-09 06:35:00
12:55 AM,33.8,31.1,90,29.99,10.0,Calm,Calm,-,N/A,,Clear,0,2013-11-09 06:55:00
1:15 AM,33.8,30.9,89,30.00,10.0,NW,4.6,-,N/A,,Clear,320,2013-11-09 07:15:00
1:35 AM,32.0,29.8,92,30.01,10.0,NW,6.9,-,N/A,,Clear,320,2013-11-09 07:35:00
1:55 AM,32.0,29.3,90,30.01,10.0,NW,5.8,-,N/A,,Clear,310,2013-11-09 07:55:00
2:15 AM,32.0,29.1,89,30.02,10.0,NW,5.8,-,N/A,,Clear,310,2013-11-09 08:15:00
2:35 AM,31.1,28.6,90,30.03,10.0,NW,6.9,-,N/A,,Clear,310,2013-11-09 08:35:00
2:55 AM,32.9,30.4,90,30.04,10.0,WNW,9.2,-,N/A,,Clear,300,2013-11-09 08:55:00
3:15 AM,35.6,31.3,84,30.04,10.0,WNW,9.2,-,N/A,,Clear,290,2013-11-09 09:15:00
3:35 AM,34.9,31.1,86,30.05,10.0,WNW,10.4,-,N/A,,Clear,290,2013-11-09 09:35:00
3:55 AM,34.7,30.9,86,30.05,10.0,WNW,9.2,-,N/A,,Clear,290,2013-11-09 09:55:00
4:15 AM,32.9,30.0,89,30.06,10.0,WNW,6.9,-,N/A,,Scattered Clouds,300,2013-11-09 10:15:00
4:35 AM,32.9,30.4,90,30.06,10.0,WNW,6.9,-,N/A,,Clear,300,2013-11-09 10:35:00
4:55 AM,33.8,30.6,88,30.07,10.0,WNW,8.1,-,N/A,,Scattered Clouds,300,2013-11-09 10:55:00
5:15 AM,33.1,30.2,89,30.07,10.0,WNW,6.9,-,N/A,,Clear,290,2013-11-09 11:15:00
5:35 AM,32.2,29.8,91,30.08,10.0,West,5.8,-,N/A,,Clear,280,2013-11-09 11:35:00
5:55 AM,32.0,29.7,91,30.08,10.0,West,5.8,-,N/A,,Scattered Clouds,280,2013-11-09 11:55:00
6:15 AM,32.0,29.5,90,30.09,10.0,WNW,3.5,-,N/A,,Scattered Clouds,290,2013-11-09 12:15:00
6:35 AM,31.1,28.8,91,30.11,10.0,West,6.9,-,N/A,,Clear,270,2013-11-09 12:35:00
6:55 AM,31.6,29.3,91,30.11,10.0,WNW,6.9,-,N/A,,Scattered Clouds,300,2013-11-09 12:55:00
7:15 AM,32.4,30.6,93,30.11,10.0,NW,8.1,-,N/A,,Mostly Cloudy,310,2013-11-09 13:15:00
7:35 AM,33.8,31.8,92,30.12,10.0,NW,5.8,-,N/A,,Mostly Cloudy,310,2013-11-09 13:35:00
7:55 AM,33.8,31.5,91,30.13,10.0,NNW,5.8,-,N/A,,Scattered Clouds,330,2013-11-09 13:55:00
8:15 AM,35.8,32.7,89,30.15,10.0,Calm,Calm,-,N/A,,Clear,0,2013-11-09 14:15:00
8:35 AM,37.6,33.8,86,30.16,10.0,West,5.8,-,N/A,,Clear,270,2013-11-09 14:35:00
8:55 AM,40.3,35.8,84,30.17,10.0,WNW,5.8,-,N/A,,Clear,300,2013-11-09 14:55:00
9:15 AM,43.0,36.5,78,30.18,10.0,WNW,4.6,-,N/A,,Clear,290,2013-11-09 15:15:00
9:35 AM,45.1,37.0,73,30.18,10.0,NNW,5.8,-,N/A,,Clear,330,2013-11-09 15:35:00
9:55 AM,48.2,36.3,63,30.18,10.0,West,3.5,-,N/A,,Clear,260,2013-11-09 15:55:00
10:15 AM,49.3,36.5,61,30.19,10.0,Calm,Calm,-,N/A,,Clear,0,2013-11-09 16:15:00
10:35 AM,51.6,35.8,55,30.20,10.0,Calm,Calm,-,N/A,,Clear,0,2013-11-09 16:35:00
10:55 AM,53.2,35.1,50,30.20,10.0,Calm,Calm,-,N/A,,Clear,0,2013-11-09 16:55:00
11:15 AM,54.9,34.5,46,30.20,10.0,ENE,5.8,-,N/A,,Clear,70,2013-11-09 17:15:00
11:35 AM,55.9,32.9,42,30.19,10.0,ENE,3.5,-,N/A,,Clear,60,2013-11-09 17:35:00
11:55 AM,56.7,31.3,38,30.19,10.0,ENE,3.5,-,N/A,,Clear,70,2013-11-09 17:55:00
12:15 PM,57.4,30.0,35,30.19,10.0,Calm,Calm,-,N/A,,Clear,0,2013-11-09 18:15:00
12:35 PM,58.1,30.7,35,30.19,10.0,Calm,Calm,-,N/A,,Clear,0,2013-11-09 18:35:00
12:55 PM,58.8,31.1,35,30.18,10.0,ENE,4.6,-,N/A,,Clear,70,2013-11-09 18:55:00
1:15 PM,58.8,28.2,31,30.17,10.0,Calm,Calm,-,N/A,,Clear,0,2013-11-09 19:15:00
1:35 PM,59.4,29.5,32,30.17,10.0,Calm,Calm,-,N/A,,Clear,0,2013-11-09 19:35:00
1:55 PM,59.5,28.2,30,30.17,10.0,Calm,Calm,-,N/A,,Clear,0,2013-11-09 19:55:00
2:15 PM,60.1,27.1,29,30.17,10.0,Calm,Calm,-,N/A,,Clear,0,2013-11-09 20:15:00
2:35 PM,60.4,28.9,30,30.17,10.0,Calm,Calm,-,N/A,,Clear,0,2013-11-09 20:35:00
2:55 PM,60.6,27.5,28,30.17,10.0,Calm,Calm,-,N/A,,Clear,0,2013-11-09 20:55:00
3:15 PM,60.8,28.0,29,30.18,10.0,Calm,Calm,-,N/A,,Clear,0,2013-11-09 21:15:00
3:35 PM,60.8,28.0,29,30.18,10.0,Calm,Calm,-,N/A,,Clear,0,2013-11-09 21:35:00
3:55 PM,60.3,29.5,31,30.18,10.0,Calm,Calm,-,N/A,,Clear,0,2013-11-09 21:55:00
4:15 PM,59.9,29.7,32,30.19,10.0,Calm,Calm,-,N/A,,Clear,0,2013-11-09 22:15:00
4:35 PM,59.0,31.5,35,30.19,10.0,Calm,Calm,-,N/A,,Clear,0,2013-11-09 22:35:00
4:55 PM,57.7,29.8,35,30.20,10.0,NE,3.5,-,N/A,,Clear,50,2013-11-09 22:55:00
5:15 PM,53.8,30.7,41,30.20,10.0,Calm,Calm,-,N/A,,Clear,0,2013-11-09 23:15:00
5:35 PM,52.5,29.8,42,30.21,10.0,Calm,Calm,-,N/A,,Clear,0,2013-11-09 23:35:00
5:55 PM,49.3,31.6,51,30.22,10.0,Calm,Calm,-,N/A,,Clear,0,2013-11-09 23:55:00
6:15 PM,47.3,33.1,58,30.24,5.0,ESE,3.5,-,N/A,,Haze,120,2013-11-10 00:15:00
6:35 PM,45.3,32.0,60,30.25,7.0,East,5.8,-,N/A,,Clear,80,2013-11-10 00:35:00
6:55 PM,43.5,32.0,64,30.26,10.0,ENE,5.8,-,N/A,,Clear,70,2013-11-10 00:55:00
7:15 PM,42.4,32.4,68,30.27,10.0,NE,8.1,-,N/A,,Clear,40,2013-11-10 01:15:00
7:35 PM,42.3,32.0,67,30.28,10.0,ENE,6.9,-,N/A,,Clear,60,2013-11-10 01:35:00
8:35 PM,40.1,31.8,72,30.30,10.0,NE,3.5,-,N/A,,Clear,50,2013-11-10 02:35:00
8:55 PM,36.5,30.7,80,30.31,10.0,Calm,Calm,-,N/A,,Clear,0,2013-11-10 02:55:00
9:15 PM,38.1,31.5,77,30.31,10.0,Calm,Calm,-,N/A,,Clear,0,2013-11-10 03:15:00
9:35 PM,35.2,30.0,81,30.31,10.0,Calm,Calm,-,N/A,,Clear,0,2013-11-10 03:35:00
9:55 PM,34.0,30.6,87,30.32,10.0,NE,5.8,-,N/A,,Clear,50,2013-11-10 03:55:00
10:15 PM,33.1,29.7,87,30.33,10.0,NE,3.5,-,N/A,,Clear,40,2013-11-10 04:15:00
10:35 PM,34.7,30.9,86,30.33,10.0,Calm,Calm,-,N/A,,Clear,0,2013-11-10 04:35:00
10:55 PM,32.4,29.5,89,30.34,10.0,Calm,Calm,-,N/A,,Clear,0,2013-11-10 04:55:00
11:15 PM,32.0,29.3,90,30.34,10.0,Calm,Calm,-,N/A,,Clear,0,2013-11-10 05:15:00
11:35 PM,31.5,28.6,89,30.34,10.0,Calm,Calm,-,N/A,,Clear,0,2013-11-10 05:35:00
11:55 PM,31.3,28.8,90,30.34,10.0,Calm,Calm,-,N/A,,Clear,0,2013-11-10 05:55:00